Wind_Speed
25 26 27 27 28 28 28 28 28 28 28 28 28 27 27 27 25 26 28 27 28 27 23 25 26 22 20 20 21 24 25 23 21 21 22 22 23 23 23 24 25 26 26 26 28 29 30 31 31 32 31 31 32 34 35 35 36 37 38 39 39 40 41 42 43 43 43 43 44 44 44 44 45 47 47 48 48 47 47 47 46 46 45 44 43 43
26 26 28 28 29 29 29 29 29 29 29 28 28 27 26 27 26 24 26 26 26 26 23 24 25 20 19 21 21 23 22 20 21 22 22 22 23 23 22 23 23 23 24 24 25 27 29 30 31 32 32 32 32 32 34 34 35 36 37 37 38 39 40 41 42 43 43 43 43 44 44 45 46 47 47 47 47 47 47 47 46 45 44 43 42 43
26 27 28 29 29 30 29 29 29 29 28 27 28 27 25 26 27 24 24 26 27 27 25 26 26 20 18 21 21 23 22 20 23 24 23 23 23 23 23 23 23 23 23 24 25 26 27 29 30 30 31 31 32 34 35 35 34 35 36 36 37 38 40 40 42 43 43 44 44 45 46 46 47 47 47 47 47 46 46 45 44 43 43 43 43 44
27 27 28 29 30 30 30 29 30 29 28 27 27 27 26 26 28 26 25 27 28 29 28 29 30 23 18 19 19 23 23 21 24 26 25 25 24 24 24 23 24 24 24 26 27 28 28 29 29 29 29 29 30 32 34 35 35 36 37 38 38 39 40 41 41 42 43 44 45 45 45 45 45 45 45 45 45 44 43 42 42 42 43 44 46 47
28 29 28 28 30 30 30 29 30 31 28 27 27 28 29 28 30 29 29 30 30 31 31 33 36 29 20 19 18 21 23 21 25 28 27 27 26 24 23 24 25 25 26 27 28 29 29 29 29 29 29 29 29 30 31 32 34 36 38 39 40 41 41 41 42 42 43 44 43 43 43 43 43 43 43 43 42 41 41 41 41 42 45 48 50 51
29 30 29 29 30 30 30 29 31 33 30 28 28 29 31 31 32 33 33 34 34 34 33 34 40 36 26 22 20 21 23 22 24 28 30 30 30 27 24 25 27 28 29 29 28 29 29 29 30 30 31 31 30 29 29 31 32 34 35 37 38 39 40 41 41 42 43 43 43 42 42 42 41 41 41 40 40 40 41 41 43 44 47 49 50 50
30 31 30 30 31 30 30 30 32 34 33 31 30 31 33 34 35 36 36 38 39 39 37 36 41 44 37 28 24 25 25 23 22 25 29 31 31 31 28 27 29 31 32 32 31 30 30 30 30 31 32 32 31 30 31 32 32 32 33 34 36 37 38 39 40 42 43 43 43 43 42 41 40 40 40 39 39 40 41 42 43 45 46 47 48 48
31 32 31 32 32 31 31 32 33 35 35 35 33 33 35 36 38 38 39 41 42 43 43 38 40 49 49 39 32 32 31 28 24 24 29 33 34 36 35 34 34 36 37 37 36 34 33 33 33 34 34 33 33 32 33 33 33 33 33 34 35 36 37 38 40 41 42 42 42 41 40 40 40 40 40 40 41 42 42 43 44 44 45 46 46 46
33 34 33 33 33 32 33 34 35 36 38 38 37 37 38 39 40 41 42 43 44 47 48 41 40 49 55 49 42 39 37 35 32 29 32 37 39 41 41 40 40 40 41 41 40 38 37 37 37 37 37 36 35 35 35 35 36 36 36 36 36 36 36 37 39 41 41 42 41 41 40 40 40 40 40 41 42 43 44 44 44 45 46 46 46 46
35 35 34 35 35 35 35 36 37 38 40 40 40 41 41 42 44 44 46 46 47 52 52 45 44 50 57 57 50 44 42 41 40 38 39 41 41 42 42 43 44 45 46 45 44 42 41 41 41 42 41 40 40 40 40 39 38 39 39 39 39 38 37 38 39 40 41 42 43 43 43 43 42 41 42 43 44 44 45 45 45 46 46 47 47 47
36 36 36 36 36 37 38 39 40 40 42 42 42 43 44 45 47 47 49 49 51 55 53 49 49 52 58 60 55 51 49 48 48 47 46 44 41 42 44 45 47 49 50 50 48 47 46 46 45 45 45 45 45 46 46 43 42 42 42 42 42 41 40 40 40 40 41 42 43 44 45 46 45 45 45 45 46 46 47 47 47 48 48 49 49 49
37 37 38 37 38 39 39 40 41 42 43 44 44 45 46 48 49 50 52 52 54 56 55 53 54 56 59 60 58 56 56 55 54 52 51 48 46 46 47 48 49 50 52 52 51 50 51 50 48 48 49 50 50 50 50 49 47 46 45 45 45 45 44 43 42 42 42 43 44 45 46 47 47 47 47 47 48 48 49 49 50 51 51 51 51 51
37 38 39 39 39 39 40 41 43 44 45 45 46 47 48 50 51 52 54 54 56 57 57 57 59 60 62 62 60 60 59 59 58 57 56 56 54 53 51 50 50 50 51 52 52 52 51 51 50 50 52 54 54 53 53 53 51 49 48 48 48 49 49 48 46 46 45 45 46 47 47 48 48 49 49 49 49 50 51 52 52 53 53 54 53 53
39 38 40 42 42 41 42 43 45 46 46 47 47 48 49 51 52 53 55 56 58 58 58 59 62 63 63 63 63 63 63 63 63 63 62 62 61 60 57 54 52 52 52 52 52 52 52 53 53 54 55 57 57 56 55 54 54 53 52 51 51 53 54 53 52 50 49 49 49 50 50 50 51 51 51 51 51 52 53 54 55 55 56 56 56 55
41 40 41 44 45 46 46 47 48 49 49 50 50 50 51 51 53 55 57 59 61 60 60 61 63 64 64 64 64 64 66 67 67 67 67 66 66 65 63 60 57 55 53 52 53 53 54 56 56 56 57 57 58 58 57 57 58 58 57 54 53 56 58 58 56 55 53 52 52 53 53 54 54 54 54 54 54 54 55 56 57 57 58 58 58 58
43 43 43 46 47 48 49 50 51 52 53 53 53 53 54 54 56 59 60 61 62 62 63 63 64 65 65 66 66 66 68 68 68 69 68 68 68 68 66 64 60 57 55 54 54 54 54 54 54 54 55 57 58 60 61 61 61 61 60 56 54 57 61 60 59 59 58 57 56 56 56 57 57 57 57 57 57 57 57 58 58 59 60 61 61 61
46 45 45 47 49 49 50 52 54 55 56 57 58 57 58 58 59 61 62 63 63 65 67 66 66 65 66 68 68 67 68 68 68 68 68 68 68 68 67 64 61 58 55 50 47 47 47 48 49 52 55 59 62 63 64 64 63 63 62 59 54 55 60 62 61 61 61 61 60 59 59 60 60 61 60 60 60 61 61 61 61 62 63 63 63 64
50 50 47 48 51 51 52 54 56 56 58 60 61 60 60 61 62 62 64 65 65 67 69 68 67 67 68 70 70 69 68 68 68 68 68 68 67 67 67 66 64 58 50 45 45 47 49 52 54 57 60 63 64 65 65 65 65 64 63 61 56 55 58 62 62 62 63 63 63 63 62 62 63 64 64 64 64 64 65 64 64 65 65 66 67 67
53 55 52 50 53 54 55 57 57 57 59 61 62 62 63 64 64 64 66 67 67 68 69 69 69 69 70 70 70 69 69 69 69 69 69 69 69 68 68 68 68 64 56 53 56 56 57 60 63 65 65 65 65 66 67 68 68 67 66 64 60 57 58 61 63 64 66 66 67 67 67 67 66 66 67 67 68 68 68 67 67 68 68 69 70 70
55 58 57 54 54 56 57 57 58 59 60 61 61 62 63 64 65 66 67 67 68 67 67 69 70 70 70 70 70 70 70 69 70 70 70 70 70 70 71 70 70 70 67 65 66 65 64 66 67 67 66 65 65 66 68 69 70 70 69 67 64 62 61 63 66 68 69 70 70 71 72 71 71 70 70 70 71 71 71 71 71 71 71 72 72 73
56 59 60 56 54 54 55 55 56 57 57 58 59 60 61 62 64 66 66 66 66 66 67 69 71 71 70 70 70 70 71 70 70 70 70 70 71 71 72 72 72 72 71 71 71 69 66 65 65 66 65 64 64 65 67 69 71 72 72 71 69 67 66 69 71 72 72 72 73 75 75 75 74 73 72 72 73 73 73 74 74 74 74 75 75 75
55 57 58 57 54 53 53 54 56 56 57 58 59 60 61 62 62 64 66 65 64 66 68 70 72 72 69 68 69 69 69 70 69 69 69 69 70 71 72 73 73 73 73 72 72 71 67 63 62 62 63 63 64 65 67 69 71 73 75 75 74 73 73 75 76 76 76 74 74 76 78 79 77 75 74 74 75 76 76 76 75 76 77 77 78 78
54 56 58 58 57 55 55 56 56 56 57 59 59 60 60 60 61 62 64 64 64 65 66 68 71 71 68 66 67 67 68 69 69 69 69 69 70 71 72 72 72 72 72 72 72 71 70 66 62 59 60 62 64 66 68 71 73 75 76 77 78 78 78 79 80 80 80 78 77 78 79 80 79 78 77 77 77 78 78 78 77 77 77 78 79 80
55 58 60 60 58 56 55 56 56 56 56 57 58 58 58 58 59 60 62 63 64 65 64 65 68 69 66 66 66 67 67 67 68 68 68 69 70 71 72 72 72 71 71 70 69 68 67 66 64 61 60 61 63 67 70 72 75 77 78 79 80 80 80 82 83 83 82 81 81 81 81 81 81 82 81 80 79 78 78 79 79 78 78 78 79 81
56 58 59 61 61 59 56 56 57 57 57 58 60 60 59 59 59 60 60 61 63 64 62 63 66 66 65 64 64 64 65 65 65 66 66 67 67 68 70 70 71 72 72 72 71 69 67 65 64 63 63 64 65 68 70 73 76 79 80 81 82 83 84 85 85 85 84 84 84 84 84 84 84 83 82 80 79 79 79 79 79 79 79 78 79 81
55 56 58 60 62 62 60 59 59 59 60 61 62 62 61 59 59 59 59 60 62 63 63 64 65 64 63 61 60 59 59 59 60 61 62 62 63 64 65 67 68 70 72 73 75 75 73 71 68 67 66 66 68 70 72 74 77 80 82 83 84 85 86 88 88 87 86 86 87 88 88 87 85 83 81 79 78 78 78 78 79 79 80 79 79 80
55 56 57 59 60 61 61 59 58 60 61 61 60 60 60 59 58 58 59 60 62 63 63 63 63 62 60 58 57 56 55 55 55 56 56 57 58 59 60 62 63 65 67 70 73 76 77 78 77 75 74 73 72 72 73 75 77 81 84 85 86 87 88 88 89 89 89 91 92 92 89 84 80 78 77 75 74 73 73 74 75 77 78 79 79 79
56 56 57 58 59 60 59 57 57 59 61 59 58 58 59 59 59 59 59 59 60 62 63 61 61 62 60 58 58 57 56 55 55 54 54 54 54 55 56 57 58 59 61 63 66 70 73 75 78 79 78 78 78 78 77 77 77 78 80 83 85 86 87 88 89 90 91 93 91 85 78 73 70 69 68 67 67 66 67 68 70 73 75 77 77 78
57 57 57 58 58 58 56 56 57 59 59 58 57 57 57 58 58 57 57 57 58 59 60 59 59 60 58 58 59 58 58 58 57 57 56 55 55 55 56 57 57 58 58 59 61 63 65 68 71 73 75 76 78 78 78 77 77 76 77 78 78 79 80 81 81 81 81 80 77 73 68 66 65 65 64 64 64 65 65 66 68 70 73 75 76 77
57 58 58 58 58 57 55 55 57 58 57 57 56 55 55 55 55 55 55 56 56 57 57 58 58 57 57 58 59 59 59 59 59 58 57 56 56 57 58 59 59 58 58 59 60 61 62 63 65 67 70 72 74 75 75 74 74 74 75 74 74 74 74 74 74 73 72 71 70 69 68 67 66 65 65 65 65 66 66 67 68 70 73 74 76 76
58 58 58 59 59 57 55 56 58 58 57 56 56 55 55 54 54 54 54 55 55 55 56 57 58 57 58 59 59 58 59 58 58 57 56 55 56 58 59 60 59 59 59 59 59 60 61 61 62 63 65 68 71 73 74 74 73 73 74 74 73 72 71 71 71 71 71 71 70 69 69 68 68 67 66 66 66 67 68 69 70 71 73 74 75 76
59 59 59 60 61 58 56 58 59 58 58 57 56 55 54 54 54 54 54 54 55 56 56 57 59 58 59 59 58 57 57 56 56 56 55 54 55 58 60 60 60 60 60 60 60 60 61 61 61 62 63 65 67 70 73 75 76 76 76 75 74 73 72 71 71 70 71 71 70 70 70 70 69 69 68 67 67 68 69 70 71 71 72 72 73 74
60 60 60 61 61 60 58 59 59 59 59 57 56 56 55 55 56 55 54 54 54 56 58 58 59 60 59 59 59 58 57 56 56 56 55 54 55 57 58 59 59 60 60 60 60 61 61 62 62 63 63 64 65 66 68 71 75 78 79 79 77 75 73 72 72 72 71 71 71 71 71 71 70 69 69 68 68 68 69 69 69 69 69 69 70 70
61 61 61 61 62 61 59 59 60 59 59 58 58 58 58 58 57 56 56 55 55 56 58 59 60 60 60 60 59 59 58 58 59 58 56 56 57 58 59 60 60 60 59 60 60 61 61 62 62 63 63 64 64 65 65 66 68 71 76 79 81 80 79 77 76 75 75 74 73 72 72 72 72 70 69 68 68 68 68 68 68 68 68 68 68 68
61 61 61 61 62 62 61 61 62 61 60 60 60 60 60 60 60 59 58 58 58 58 59 60 61 61 60 60 59 60 60 59 60 59 58 59 60 60 60 61 60 60 60 60 60 60 61 62 62 62 62 62 63 64 65 65 65 66 68 71 76 79 82 83 82 80 79 78 77 76 75 74 73 72 71 70 69 68 68 67 67 67 68 68 68 68
61 61 62 62 63 63 63 63 64 63 62 61 61 61 62 62 62 62 60 58 57 58 59 61 62 62 62 61 60 61 61 61 60 59 59 60 62 62 62 61 61 61 60 60 60 60 60 61 61 62 62 62 63 63 64 65 65 65 65 66 68 71 74 78 80 81 81 81 80 80 79 79 77 76 74 73 72 71 70 69 69 68 68 68 68 68
62 62 63 63 64 65 65 65 65 64 64 63 62 63 63 63 63 64 63 60 59 60 62 64 64 63 63 63 62 63 64 63 60 59 59 61 62 63 63 62 62 62 61 60 60 60 60 60 61 61 61 62 62 62 63 63 64 64 63 63 65 67 67 68 71 75 78 81 83 83 83 83 82 81 80 79 77 76 75 74 73 72 71 71 70 69
64 64 65 66 66 66 67 67 67 66 65 65 64 65 65 64 62 63 64 63 62 62 63 65 66 65 64 64 64 64 65 65 62 60 61 62 62 63 63 62 62 62 61 61 60 59 59 60 60 60 60 60 61 62 62 62 62 62 61 60 62 64 64 64 64 66 69 73 78 82 85 86 87 86 85 84 83 81 80 79 78 78 76 75 74 73
66 67 67 68 68 68 68 69 69 68 67 66 67 67 65 63 62 62 64 63 63 63 64 66 67 66 66 66 65 65 66 66 64 61 62 63 63 64 64 63 62 62 61 61 61 60 59 59 59 59 59 60 61 62 62 61 60 59 57 57 58 59 60 61 61 61 62 63 66 71 76 81 86 88 89 89 88 87 86 85 84 83 82 81 79 77
69 70 70 70 70 70 70 70 69 68 67 68 68 67 65 64 63 64 65 65 65 65 65 66 68 68 69 69 68 67 67 68 67 65 64 65 64 64 64 63 62 61 60 60 60 60 59 59 58 58 59 61 62 62 61 59 57 54 52 52 54 55 56 57 57 58 59 60 61 62 64 68 73 78 83 87 89 90 90 90 89 88 87 85 84 82
72 72 72 72 71 71 71 70 69 68 67 68 68 67 67 67 66 65 67 69 69 68 67 68 69 70 70 71 71 70 69 68 69 68 66 65 65 64 62 62 60 59 58 59 59 59 58 57 56 57 59 61 60 59 57 55 51 48 47 47 49 51 52 54 55 56 57 57 57 57 57 58 60 62 66 72 77 82 85 87 88 88 87 86 85 84
74 73 73 73 72 71 70 70 71 69 67 67 67 67 68 69 68 68 70 71 72 72 72 71 70 70 70 71 71 71 70 69 68 67 65 65 64 63 62 61 59 57 56 56 56 57 57 55 54 56 59 59 57 54 52 49 46 43 42 43 46 48 51 52 54 54 54 53 51 50 50 50 51 52 53 56 60 65 70 75 78 80 81 82 82 81
74 73 73 72 71 70 70 71 70 70 69 70 70 69 68 69 69 72 74 74 74 75 77 76 73 71 71 71 70 70 70 68 67 66 65 63 63 62 61 60 58 56 54 53 53 55 55 54 53 55 56 55 53 50 46 43 41 41 42 44 46 47 48 49 49 48 47 45 44 42 42 42 43 44 46 47 49 52 55 59 63 67 71 73 75 75
73 73 72 71 70 70 70 70 69 69 71 71 71 70 70 70 71 74 77 78 78 78 79 79 76 73 72 71 70 69 68 67 66 65 64 63 62 61 60 58 56 54 52 51 51 52 52 52 52 54 52 49 47 45 43 42 41 41 43 44 44 43 42 41 40 39 38 37 36 35 36 37 38 39 39 40 41 42 44 47 50 54 58 62 66 68
71 70 70 69 69 68 69 70 70 71 72 71 70 71 72 73 75 77 80 81 81 80 80 79 77 74 73 72 71 70 68 68 67 65 64 63 62 60 58 56 54 52 51 49 48 49 49 49 51 52 48 44 42 41 42 42 42 40 39 38 37 37 36 35 33 31 30 29 29 30 31 32 33 34 34 35 35 36 37 38 40 43 47 52 57 61
68 68 68 69 68 68 69 70 71 72 72 71 71 72 74 76 79 82 84 84 82 80 79 79 78 76 74 73 72 71 69 68 67 65 63 62 60 57 55 53 51 50 49 48 47 46 46 47 49 48 43 40 40 40 40 39 38 36 34 32 32 33 32 30 28 26 26 26 26 27 28 28 30 30 31 31 31 32 32 33 34 36 39 44 49 53
67 67 67 68 68 69 70 70 71 72 72 72 73 74 76 80 83 86 88 87 83 79 78 77 76 75 73 72 71 69 68 66 65 63 61 58 56 53 51 49 47 47 46 45 45 44 44 45 46 44 40 38 37 36 34 33 33 32 30 29 29 29 29 28 26 26 26 26 26 26 26 27 28 29 29 29 29 30 30 30 31 32 34 37 41 45
67 68 68 68 68 69 69 70 71 71 72 73 74 76 79 83 86 87 88 87 83 79 76 73 72 71 70 68 67 66 65 63 61 60 57 54 51 48 46 45 44 43 43 42 42 42 42 43 43 40 37 35 32 30 29 29 29 28 27 26 27 27 27 27 27 27 27 27 27 27 26 26 26 27 27 28 28 28 28 28 29 29 30 32 35 38
67 67 68 68 68 68 68 69 71 74 75 76 77 80 84 86 86 84 84 82 78 75 71 68 66 64 63 63 62 61 60 59 57 55 53 50 46 44 42 40 40 40 40 40 40 39 39 41 40 36 33 30 28 26 26 26 26 26 25 24 25 26 25 26 26 27 27 27 27 27 27 26 26 26 25 25 25 25 25 26 27 28 29 30 31 33
65 65 66 67 67 67 68 70 74 76 78 80 83 86 86 85 82 80 78 76 72 69 66 64 62 59 58 57 57 56 56 54 52 50 47 44 42 40 38 37 37 37 37 37 37 36 37 39 37 33 29 26 24 23 24 24 25 25 24 24 24 24 24 24 24 25 25 25 26 27 27 27 27 26 25 24 23 23 24 24 25 26 27 29 30 31
63 63 64 65 66 68 69 71 73 75 79 83 86 86 84 81 79 77 74 71 68 65 62 60 59 57 55 54 53 52 52 50 48 45 42 38 36 36 35 35 35 34 34 35 35 34 35 37 34 29 26 24 22 22 23 23 24 24 24 24 23 23 23 22 22 23 24 24 24 25 25 26 26 26 25 24 23 23 23 24 24 25 26 27 28 29
Wind_Direction
315 316 317 319 318 317 316 313 312 311 309 308 307 307 307 305 304 303 303 304 302 303 305 301 302 311 312 306 304 302 306 312 312 309 308 306 303 302 301 298 295 293 291 287 285 284 282 281 280 279 279 278 278 278 277 275 273 272 270 269 269 268 268 268 268 267 267 266 265 265 264 263 262 262 262 262 263 262 262 262 262 262 262 262 262 262
315 315 316 318 317 317 316 313 312 311 310 310 308 308 308 305 305 305 304 304 304 305 306 302 302 312 313 307 306 305 308 314 311 310 313 311 310 309 307 305 302 299 297 293 291 289 285 283 281 279 278 277 276 275 274 273 272 272 271 270 270 269 268 268 268 267 266 265 264 263 262 261 260 261 261 261 262 262 262 263 263 264 264 264 263 263
313 313 315 316 317 317 315 314 312 311 311 310 308 308 308 305 304 306 305 304 303 304 305 302 301 309 312 307 309 307 310 317 313 311 315 313 311 311 309 308 304 302 301 300 298 297 294 291 288 286 283 280 277 274 273 273 273 272 271 271 269 268 267 266 266 266 265 264 263 262 261 261 261 262 262 262 263 264 264 265 266 266 265 263 262 261
310 310 312 313 315 316 314 313 311 310 311 309 308 307 306 305 304 305 304 302 303 303 304 303 300 305 310 307 310 309 311 320 316 313 315 313 311 311 309 306 304 303 304 304 302 300 297 295 293 291 289 286 283 280 277 275 273 271 270 269 268 267 267 267 267 266 266 265 264 264 264 264 264 264 264 264 264 265 266 266 265 264 262 260 258 257
307 308 310 310 313 314 312 312 309 308 309 308 307 306 305 305 303 304 304 302 302 302 303 303 300 301 307 306 308 308 309 318 319 317 316 313 311 309 305 303 301 301 302 302 302 300 296 294 292 290 290 289 288 286 281 276 273 271 270 270 270 271 271 271 270 269 268 267 266 266 266 265 264 264 264 264 264 264 263 262 260 259 258 257 257 257
305 305 306 307 309 311 310 309 306 306 307 306 306 304 303 304 303 302 302 302 301 300 301 302 300 299 300 301 304 303 305 314 320 319 316 314 310 303 296 293 292 292 294 295 297 296 292 290 289 289 289 288 288 286 282 279 277 275 274 273 273 273 272 272 271 270 268 268 267 266 265 264 263 263 263 263 261 261 259 258 257 257 257 258 260 261
304 302 303 303 305 307 307 306 304 304 304 304 303 301 300 302 302 301 301 300 300 300 300 301 302 300 296 299 302 300 301 308 313 311 307 306 302 293 287 283 282 284 286 288 290 288 285 283 283 285 285 285 283 282 280 280 282 281 278 275 273 271 270 269 268 268 268 267 267 266 265 264 263 262 262 261 259 258 257 257 257 258 258 259 261 262
302 301 301 300 301 304 304 302 301 301 301 301 301 298 297 298 298 298 298 297 298 298 297 299 304 300 296 298 302 299 300 302 299 294 292 292 290 287 286 283 282 283 284 285 287 285 282 279 279 280 281 280 279 277 278 279 280 279 277 275 273 272 271 269 267 266 266 265 264 264 263 262 261 261 260 259 258 257 257 257 257 258 258 259 260 261
301 301 300 298 300 301 300 299 299 298 298 299 298 296 295 295 295 295 295 295 296 295 295 299 301 296 295 297 299 298 298 296 292 286 283 285 285 286 287 286 285 285 284 284 284 284 282 279 279 279 279 279 276 275 274 274 275 275 275 275 274 273 271 269 267 266 265 263 262 261 260 259 259 260 260 259 259 259 259 259 259 259 259 260 260 261
301 301 300 299 299 298 297 297 296 296 295 296 295 294 294 294 293 294 293 293 293 292 295 299 296 292 293 296 296 296 294 291 289 286 284 284 283 283 283 284 286 286 285 283 282 283 283 281 280 280 280 278 275 274 273 272 272 272 272 272 271 270 268 267 267 267 266 265 263 261 259 259 260 261 261 262 262 262 261 261 261 261 260 260 261 261
301 301 300 300 298 296 296 296 295 294 293 293 293 292 292 292 292 292 291 291 290 290 293 295 292 289 291 293 295 295 293 291 289 287 286 284 281 280 281 283 284 284 284 283 283 284 285 283 281 281 280 279 276 276 275 272 271 270 270 269 268 267 266 265 265 265 265 264 264 263 261 260 261 262 262 262 262 262 262 262 262 262 261 261 261 261
301 301 301 299 298 296 296 295 293 292 292 292 292 292 291 291 290 290 289 289 288 288 291 291 289 288 288 289 292 292 292 291 289 287 286 284 281 280 281 281 282 282 282 283 283 285 285 283 281 280 280 279 279 278 275 273 273 273 272 270 268 266 264 263 263 263 262 262 262 261 261 260 261 261 261 261 261 261 261 261 261 261 262 262 262 262
302 302 301 300 298 297 296 294 293 292 292 292 291 292 291 291 290 289 288 287 286 286 288 288 288 287 287 289 290 291 291 290 289 288 286 286 285 284 282 280 280 280 280 281 282 283 282 281 281 280 279 280 280 278 276 275 274 274 274 272 270 266 263 262 261 261 261 261 261 261 260 260 260 260 260 260 259 259 260 260 260 261 262 262 263 263
303 303 302 300 299 298 297 296 294 294 293 293 292 292 292 292 292 290 288 286 286 286 287 287 286 286 287 289 290 291 290 290 290 290 290 290 289 288 286 283 281 280 279 279 278 278 278 278 279 279 278 279 279 278 277 276 276 276 276 275 272 268 265 263 262 261 261 260 260 259 260 260 260 260 260 260 259 259 258 258 259 259 260 261 261 262
303 304 302 300 300 300 299 298 297 297 296 295 295 294 292 292 291 289 288 287 287 287 286 285 285 286 287 288 288 289 289 289 290 291 291 291 291 290 289 287 284 282 278 275 274 274 274 275 275 275 275 276 276 276 276 276 277 278 278 276 272 268 266 265 264 263 262 261 260 259 259 259 260 260 260 261 261 260 260 259 259 259 259 259 260 259
302 302 302 300 300 300 301 301 299 299 299 297 296 294 293 291 289 288 288 287 287 286 285 285 285 286 287 286 286 286 287 288 288 289 289 289 289 290 289 287 286 283 279 277 275 274 272 271 271 271 272 272 272 273 274 275 276 276 276 275 272 267 264 264 265 265 264 263 261 261 260 260 260 260 260 260 260 260 260 260 259 259 259 259 259 259
301 300 301 300 299 300 300 299 299 299 299 298 296 295 294 292 291 290 289 288 287 285 285 286 286 286 286 285 285 286 286 287 287 287 287 287 287 287 287 286 285 284 282 278 274 269 265 263 263 265 267 269 270 272 273 274 274 273 273 272 270 266 262 261 262 264 265 264 263 262 261 261 261 261 260 260 259 258 258 258 258 258 259 259 259 259
301 300 301 300 300 300 299 297 297 297 297 296 296 295 295 293 292 292 290 289 288 287 287 288 287 286 285 285 286 287 286 286 285 285 285 285 285 284 284 284 283 283 279 271 266 260 256 256 258 261 264 267 269 270 271 272 272 271 271 271 268 264 261 261 261 262 262 261 261 261 260 260 260 260 260 260 260 259 258 258 257 257 257 257 258 258
302 301 302 302 300 299 298 297 297 296 295 295 295 295 295 294 293 292 292 291 291 290 290 290 289 289 288 288 289 288 287 287 286 286 285 285 284 283 282 282 282 281 277 269 267 265 261 261 263 265 266 266 267 267 268 269 270 270 270 269 267 262 257 257 258 258 259 259 259 259 259 259 259 259 259 259 260 260 260 259 258 257 257 256 256 257
303 302 302 303 301 300 299 298 297 296 296 296 295 295 295 294 294 294 293 294 294 293 292 292 292 292 292 292 291 290 289 288 287 286 285 284 284 283 282 281 280 279 277 274 273 272 269 268 268 268 267 266 265 265 265 266 267 268 268 267 266 262 256 253 253 254 255 257 258 259 259 259 259 258 258 258 258 259 260 260 260 259 258 257 256 256
303 302 303 304 303 302 302 300 298 298 298 297 296 295 296 296 296 295 295 296 295 293 292 292 292 293 293 293 292 291 290 289 288 287 285 284 284 283 282 281 280 279 278 277 277 277 276 273 272 270 269 267 264 263 263 263 264 264 265 264 263 261 257 254 254 255 256 257 257 257 257 258 258 258 258 258 258 258 258 259 260 260 259 258 258 258
305 305 305 306 305 304 303 301 300 300 299 298 297 297 298 298 298 297 296 297 295 293 292 292 291 293 295 294 293 292 291 290 289 287 286 285 284 283 282 281 281 280 279 278 278 278 278 276 273 271 269 267 264 261 261 261 261 262 262 262 262 260 259 258 259 261 261 260 258 257 256 256 257 258 259 260 260 258 258 258 259 260 260 260 259 259
307 307 306 306 306 305 304 302 301 300 299 299 299 299 299 299 299 298 298 298 296 294 294 293 291 294 297 295 293 292 291 290 289 288 287 286 285 284 283 282 281 280 279 278 277 277 276 276 273 269 266 263 261 259 258 258 258 259 259 260 261 261 261 261 263 264 264 263 260 257 256 255 256 258 260 262 262 260 258 258 258 259 260 260 260 259
309 308 307 307 306 306 305 304 303 302 302 301 300 300 300 300 299 299 299 299 298 298 298 295 294 297 298 296 294 293 291 290 289 288 287 286 285 283 282 281 280 280 279 277 276 275 274 274 273 270 265 261 258 256 255 255 255 255 256 257 258 259 260 261 263 264 264 263 262 260 258 258 259 261 262 263 262 260 259 258 257 257 258 260 260 260
310 310 309 309 309 308 307 305 304 303 302 302 301 301 300 300 301 301 301 301 300 300 300 296 296 299 299 296 295 293 292 291 290 289 288 287 287 285 284 282 281 279 278 276 275 273 271 270 269 268 266 262 258 255 254 255 255 254 254 255 256 257 258 260 262 263 263 263 263 263 264 265 265 265 264 262 261 260 259 258 257 256 256 258 259 260
311 312 312 312 312 312 311 310 308 306 304 304 304 303 303 303 302 302 301 300 299 299 299 297 297 298 298 296 295 293 292 292 291 290 290 290 289 288 286 285 283 281 279 277 275 273 271 268 266 264 263 261 259 256 254 254 254 254 254 254 255 256 257 259 260 261 262 263 265 267 269 269 268 267 266 264 262 261 260 258 256 255 255 255 257 258
313 314 314 314 314 314 313 313 312 309 307 307 306 305 305 304 303 302 301 300 299 298 298 298 297 297 297 296 295 294 294 293 292 291 290 289 288 286 285 285 285 283 281 279 277 275 273 271 268 266 263 261 259 257 255 254 254 254 253 254 255 256 256 257 258 259 262 264 267 269 270 270 268 266 265 264 263 261 260 258 256 255 253 253 254 256
316 316 316 316 315 314 313 314 312 309 308 309 308 306 305 304 304 303 302 301 300 298 298 298 297 296 296 295 294 295 295 294 293 292 291 290 289 287 286 286 285 283 281 280 278 276 274 272 270 268 266 265 263 261 259 258 258 257 256 255 256 256 257 257 258 259 261 264 267 267 267 266 265 265 264 263 263 262 260 259 257 255 253 253 253 254
317 317 316 316 316 315 314 313 311 309 309 310 309 308 306 305 304 303 302 301 299 298 298 297 296 296 297 295 295 295 295 294 294 294 294 294 294 293 292 291 290 289 287 285 283 280 278 276 273 271 269 267 266 264 263 262 262 262 262 261 260 260 260 261 261 261 262 263 263 263 263 264 264 264 264 264 263 262 261 260 258 256 254 253 253 253
317 317 317 316 316 316 315 312 310 309 310 310 309 308 307 306 305 304 302 301 300 299 299 297 297 297 296 295 295 295 295 296 297 297 298 299 299 298 297 296 295 294 293 291 289 287 286 283 280 277 274 272 270 268 266 265 265 265 265 265 265 265 265 265 265 265 265 265 264 264 264 264 263 263 262 262 262 261 259 258 256 255 253 252 252 252
318 317 317 316 316 317 315 312 311 311 311 311 311 310 309 308 306 304 303 301 300 299 298 297 296 295 294 294 295 296 297 298 299 299 300 301 301 299 298 298 298 297 296 295 294 292 290 288 286 283 280 276 273 270 268 267 266 266 266 266 266 266 267 267 266 266 266 266 265 265 264 263 263 262 261 260 260 259 258 257 256 255 254 253 253 253
318 318 318 316 316 317 316 313 312 312 312 313 312 311 309 307 305 304 304 302 301 300 298 297 295 295 294 294 296 297 298 298 298 298 299 300 300 299 299 299 298 298 298 298 297 296 295 293 291 288 285 281 277 274 271 268 266 266 265 265 265 265 265 265 265 264 263 263 263 263 263 262 262 261 261 260 259 258 257 257 256 255 255 254 254 254
319 319 318 317 316 317 316 314 314 313 313 313 312 310 308 306 305 305 304 303 301 300 299 298 297 297 297 297 298 298 298 297 297 297 298 298 298 298 298 298 298 298 299 300 300 299 298 297 295 293 290 287 284 281 278 274 270 267 265 265 264 264 263 264 264 264 262 259 258 258 259 259 258 258 258 258 257 256 256 255 255 255 255 255 255 255
320 319 319 317 317 317 316 314 313 313 313 312 311 310 309 307 306 306 305 303 301 300 300 299 299 299 299 300 300 299 298 297 297 298 299 299 297 297 297 298 299 300 301 301 301 301 300 299 298 295 292 289 287 286 284 282 278 274 270 267 265 264 263 263 264 264 263 260 257 256 255 255 255 254 254 254 254 254 254 255 255 256 256 257 258 258
321 320 319 318 317 317 317 315 313 313 313 312 311 310 308 306 305 305 304 304 302 301 300 299 299 299 298 298 298 297 296 297 297 298 299 299 299 299 299 300 301 301 301 301 301 301 301 300 299 297 294 291 288 286 285 284 282 280 278 274 271 268 266 265 264 264 263 262 259 257 255 254 253 253 252 252 253 253 254 255 256 257 258 259 259 260
321 320 319 319 317 317 316 315 314 313 313 312 310 308 306 304 304 303 302 302 301 300 299 297 297 297 298 298 298 297 296 297 297 299 301 301 301 300 300 300 299 299 299 299 299 299 300 300 299 298 296 294 291 289 287 285 283 281 280 278 276 274 271 269 267 264 263 263 262 260 258 256 254 253 253 254 254 255 256 257 257 258 259 259 260 260
322 321 320 319 317 316 315 314 313 312 311 310 308 305 304 303 303 302 301 301 300 299 299 298 297 298 299 299 298 298 298 298 298 299 299 298 298 298 298 298 298 298 298 298 298 298 299 300 300 299 298 296 293 291 289 287 285 283 281 279 277 276 275 273 271 267 265 263 262 261 260 259 257 256 255 256 256 257 258 259 260 260 261 261 262 262
322 321 320 318 317 316 314 313 312 311 309 308 306 304 304 304 304 303 302 303 303 301 300 300 300 300 299 299 298 298 297 297 297 298 297 297 297 297 297 297 297 298 298 298 298 298 299 299 299 299 298 296 295 294 292 289 287 285 283 280 278 276 275 274 273 272 269 266 264 263 261 260 260 259 258 257 257 258 260 261 262 263 264 264 264 264
321 320 319 317 316 315 313 312 311 310 309 307 305 305 305 305 305 304 303 303 303 302 302 301 301 301 300 299 298 297 297 297 297 297 297 297 297 296 296 297 297 298 299 299 299 299 299 299 300 300 299 299 298 297 294 292 289 286 283 281 278 277 275 275 274 273 272 271 269 266 264 262 261 260 259 259 258 258 259 260 262 263 264 265 265 265
321 320 318 316 315 313 312 311 310 309 308 306 305 305 305 306 306 305 303 303 302 302 302 301 301 301 301 300 299 299 298 298 298 298 297 296 296 296 296 297 297 298 298 299 299 299 299 300 302 302 302 302 301 299 297 293 289 285 282 279 278 277 277 276 276 275 274 273 272 270 268 266 264 262 261 260 259 259 259 260 261 262 263 263 264 264
321 319 317 315 314 312 311 309 308 308 307 305 305 306 306 306 305 304 303 303 303 303 302 302 302 302 301 300 299 298 298 297 297 297 297 296 295 295 295 296 296 297 297 298 298 299 300 302 303 303 304 304 303 301 298 294 290 286 283 280 279 278 278 278 279 278 278 277 275 274 272 270 268 266 264 262 261 260 260 260 260 260 260 261 261 261
320 318 316 315 313 312 310 309 309 308 307 305 305 306 306 305 305 303 303 303 304 304 304 303 302 301 298 297 296 296 296 296 296 296 296 295 295 295 295 295 295 295 296 297 298 299 301 302 303 305 306 306 304 301 298 295 291 289 285 283 281 281 281 282 282 282 282 282 280 278 276 274 272 270 268 266 264 262 260 259 259 258 258 258 257 258
319 317 315 314 312 311 310 310 309 308 306 305 306 306 305 304 303 302 302 303 303 304 303 303 301 299 297 296 295 295 295 296 296 296 296 296 296 296 296 296 296 295 296 297 298 300 302 303 305 307 308 306 303 301 299 295 293 290 288 286 285 285 285 286 286 286 285 284 283 281 279 277 276 274 273 271 268 265 262 260 258 257 255 254 253 253
317 315 313 313 312 310 310 310 308 305 304 305 306 305 304 303 302 302 302 302 303 303 303 302 301 299 298 297 297 296 297 297 297 297 297 297 297 296 296 296 296 296 296 297 299 301 303 305 307 309 308 305 303 301 299 296 294 292 291 290 290 291 290 290 289 288 287 285 284 283 281 280 279 278 277 275 273 271 268 264 261 258 255 253 251 249
316 314 312 311 310 309 308 308 306 304 304 305 305 303 302 301 301 301 301 302 303 303 303 302 302 301 300 300 300 299 299 298 298 298 298 297 297 297 296 296 296 296 297 298 300 302 304 305 307 309 307 304 302 300 298 297 296 295 295 295 295 295 295 294 292 290 287 286 285 283 283 282 282 281 280 279 277 275 273 270 266 262 257 254 251 250
314 312 310 309 309 309 308 307 306 305 305 304 302 301 300 300 300 301 302 303 304 305 305 304 304 304 303 302 302 301 300 300 299 298 298 298 297 296 296 296 295 296 297 299 301 303 303 304 308 309 306 303 301 300 299 299 299 299 300 299 298 297 297 296 294 291 288 287 286 286 285 285 285 284 283 281 280 278 277 274 271 266 262 258 255 253
314 312 310 310 310 310 309 309 307 305 305 303 302 301 300 301 302 304 305 305 306 307 306 306 306 305 304 303 302 301 300 299 299 298 297 297 296 295 294 294 294 294 296 299 302 302 302 305 309 308 304 302 301 300 300 301 301 301 302 301 299 297 297 297 295 292 290 289 288 288 288 288 289 288 285 284 282 281 279 277 274 270 266 261 258 256
315 314 313 313 312 311 310 309 307 305 304 303 302 302 303 304 305 306 306 307 308 308 307 305 304 303 302 302 301 300 299 299 299 298 297 297 295 294 293 292 292 293 296 300 301 301 302 307 310 307 302 301 300 299 301 301 300 301 302 301 299 298 299 298 295 293 291 291 290 290 291 291 292 291 288 284 282 281 280 278 276 272 269 265 262 259
316 315 314 313 312 311 310 309 307 306 305 304 303 304 305 306 307 306 306 306 307 306 305 303 302 302 302 301 301 300 300 299 299 298 298 297 296 294 292 291 292 294 297 300 301 300 303 308 309 305 301 300 299 299 302 302 302 303 304 302 300 300 300 299 296 294 292 291 291 292 293 293 294 293 291 287 282 280 280 278 275 272 269 266 264 261
317 316 315 314 313 312 312 311 310 308 307 306 306 307 307 308 308 307 307 308 307 306 306 305 303 303 303 303 302 302 301 300 299 299 298 297 295 294 292 291 292 295 298 300 300 300 304 308 308 303 300 299 299 302 305 306 306 308 307 305 304 303 302 301 299 297 295 293 293 293 294 295 295 295 294 291 286 282 280 279 277 273 269 266 264 262
320 318 317 316 314 313 313 312 310 306 304 304 306 308 308 310 310 310 310 310 309 309 308 307 306 305 305 304 304 303 302 301 300 299 298 296 295 294 293 293 295 298 300 301 300 300 305 309 307 302 299 299 301 305 308 310 311 312 310 309 308 308 307 307 305 302 300 298 296 295 295 295 295 295 295 294 291 287 283 280 278 276 272 270 267 265
Height
5730 5728 5726 5725 5722 5720 5718 5716 5714 5713 5711 5709 5707 5705 5704 5702 5701 5699 5696 5695 5693 5692 5692 5689 5688 5689 5688 5686 5685 5682 5682 5681 5680 5679 5678 5677 5676 5675 5674 5673 5671 5670 5669 5668 5667 5666 5665 5664 5663 5662 5662 5661 5660 5660 5659 5658 5658 5658 5657 5657 5657 5656 5656 5656 5655 5655 5655 5655 5655 5656 5656 5656 5655 5654 5655 5655 5655 5656 5656 5656 5657 5658 5659 5659 5660 5660
5728 5726 5724 5722 5720 5718 5716 5714 5712 5710 5708 5706 5704 5703 5701 5699 5698 5697 5694 5692 5690 5689 5689 5687 5686 5687 5686 5684 5683 5680 5680 5679 5678 5677 5676 5674 5673 5672 5671 5670 5668 5667 5666 5665 5664 5662 5661 5660 5659 5658 5658 5657 5656 5655 5654 5653 5653 5652 5652 5652 5652 5651 5651 5651 5650 5650 5650 5650 5650 5650 5650 5650 5649 5649 5649 5649 5650 5650 5650 5651 5652 5653 5653 5654 5654 5654
5726 5724 5722 5720 5718 5716 5713 5711 5709 5707 5706 5704 5701 5700 5699 5696 5695 5694 5692 5690 5688 5686 5686 5684 5683 5685 5684 5682 5680 5678 5677 5677 5675 5674 5673 5671 5670 5669 5668 5667 5665 5664 5663 5662 5660 5659 5658 5657 5655 5655 5654 5653 5652 5651 5650 5649 5649 5648 5647 5647 5646 5645 5645 5645 5645 5644 5644 5644 5644 5644 5644 5644 5643 5644 5644 5644 5644 5645 5645 5646 5647 5647 5648 5648 5648 5647
5724 5722 5720 5717 5715 5713 5711 5709 5706 5705 5703 5701 5699 5697 5696 5694 5692 5691 5690 5687 5685 5683 5682 5680 5679 5682 5683 5680 5679 5676 5674 5675 5672 5670 5670 5668 5667 5666 5664 5663 5662 5660 5659 5658 5656 5655 5654 5653 5652 5651 5650 5649 5648 5647 5646 5645 5644 5644 5643 5642 5641 5640 5640 5640 5640 5640 5640 5639 5639 5639 5639 5639 5639 5639 5639 5639 5640 5640 5641 5641 5641 5641 5640 5640 5640 5639
5721 5719 5718 5715 5713 5711 5709 5707 5704 5702 5701 5699 5697 5695 5693 5692 5689 5687 5686 5684 5683 5681 5679 5676 5673 5676 5680 5678 5677 5675 5672 5672 5670 5667 5666 5664 5664 5663 5661 5659 5658 5656 5655 5653 5652 5650 5649 5648 5647 5646 5645 5644 5643 5642 5641 5640 5639 5638 5638 5637 5636 5636 5636 5636 5635 5635 5634 5633 5634 5634 5634 5634 5634 5634 5634 5634 5635 5634 5634 5634 5634 5634 5633 5632 5632 5632
5719 5716 5715 5713 5710 5708 5706 5704 5701 5699 5698 5697 5695 5692 5690 5688 5686 5684 5682 5680 5678 5677 5676 5674 5667 5668 5674 5676 5675 5673 5671 5670 5668 5665 5662 5660 5659 5657 5656 5654 5652 5650 5649 5648 5646 5645 5644 5643 5642 5641 5640 5639 5638 5637 5635 5634 5633 5633 5633 5632 5631 5631 5631 5630 5629 5628 5628 5628 5628 5628 5628 5628 5628 5628 5629 5629 5629 5628 5628 5627 5627 5626 5626 5626 5626 5626
5716 5713 5712 5710 5708 5706 5704 5701 5698 5695 5694 5693 5692 5689 5686 5685 5682 5680 5678 5675 5673 5672 5671 5672 5666 5659 5662 5671 5672 5669 5668 5668 5667 5664 5659 5655 5652 5649 5648 5647 5645 5644 5642 5642 5641 5639 5638 5637 5636 5635 5634 5633 5633 5632 5630 5629 5629 5628 5627 5626 5626 5625 5625 5624 5623 5623 5622 5623 5623 5623 5623 5623 5623 5623 5624 5623 5622 5622 5622 5621 5621 5621 5621 5621 5621 5621
5713 5710 5709 5707 5705 5703 5701 5698 5695 5692 5690 5689 5688 5686 5683 5681 5678 5676 5674 5671 5669 5666 5665 5668 5666 5654 5649 5660 5666 5664 5664 5664 5663 5660 5654 5648 5645 5642 5641 5641 5640 5638 5637 5636 5635 5634 5632 5631 5630 5629 5628 5627 5627 5626 5625 5625 5624 5623 5622 5621 5620 5620 5619 5619 5618 5617 5617 5617 5617 5617 5617 5617 5618 5618 5618 5617 5616 5616 5616 5615 5616 5616 5615 5615 5616 5616
5709 5707 5706 5703 5702 5700 5697 5695 5692 5689 5686 5685 5684 5681 5679 5677 5674 5672 5669 5667 5665 5660 5659 5664 5664 5652 5643 5649 5658 5658 5657 5656 5654 5653 5649 5644 5641 5638 5636 5635 5634 5633 5632 5631 5630 5629 5628 5626 5625 5623 5622 5622 5621 5620 5620 5619 5618 5617 5617 5616 5615 5615 5614 5613 5612 5611 5611 5611 5611 5611 5611 5612 5612 5612 5612 5611 5610 5610 5610 5610 5610 5610 5610 5610 5610 5610
5706 5704 5703 5700 5699 5696 5694 5691 5688 5686 5682 5680 5679 5676 5674 5672 5669 5667 5664 5662 5660 5653 5653 5659 5658 5649 5639 5640 5648 5650 5649 5648 5646 5645 5642 5639 5637 5634 5632 5631 5629 5628 5626 5625 5624 5624 5623 5621 5620 5619 5617 5616 5614 5614 5613 5613 5612 5612 5611 5610 5610 5609 5608 5607 5606 5606 5605 5605 5605 5605 5605 5606 5606 5606 5605 5605 5604 5604 5604 5604 5604 5604 5604 5603 5604 5604
5703 5701 5699 5697 5695 5692 5690 5687 5684 5682 5678 5676 5674 5671 5669 5666 5663 5662 5658 5657 5653 5647 5649 5653 5650 5644 5637 5634 5637 5638 5638 5639 5638 5638 5636 5634 5632 5630 5628 5626 5624 5623 5621 5619 5618 5618 5617 5616 5614 5613 5612 5610 5608 5607 5606 5606 5605 5604 5604 5604 5603 5603 5602 5601 5600 5600 5599 5599 5598 5599 5599 5599 5599 5599 5598 5598 5598 5598 5597 5598 5597 5597 5596 5596 5596 5597
5700 5698 5695 5693 5691 5688 5686 5683 5680 5677 5674 5671 5669 5666 5663 5660 5657 5655 5652 5650 5646 5642 5644 5645 5641 5637 5633 5630 5631 5630 5629 5630 5629 5629 5628 5627 5626 5625 5623 5621 5619 5617 5615 5613 5612 5611 5610 5609 5608 5606 5605 5603 5602 5600 5599 5598 5598 5598 5597 5596 5596 5596 5595 5594 5594 5593 5593 5592 5592 5592 5591 5592 5591 5591 5591 5591 5591 5591 5590 5590 5590 5589 5589 5589 5589 5589
5698 5695 5692 5689 5687 5684 5681 5678 5675 5672 5670 5667 5664 5661 5657 5653 5650 5647 5645 5642 5639 5638 5639 5637 5633 5629 5626 5624 5625 5624 5622 5620 5619 5619 5619 5617 5617 5616 5616 5614 5613 5611 5609 5607 5606 5605 5603 5602 5601 5600 5598 5596 5594 5593 5592 5591 5591 5591 5591 5590 5590 5588 5587 5586 5586 5586 5585 5585 5585 5584 5584 5584 5584 5583 5583 5584 5584 5583 5583 5583 5582 5582 5582 5582 5582 5582
5695 5693 5689 5685 5682 5680 5677 5674 5670 5667 5665 5662 5659 5656 5652 5648 5642 5638 5637 5634 5631 5632 5632 5630 5625 5622 5621 5618 5617 5616 5613 5611 5610 5609 5608 5607 5606 5605 5605 5605 5604 5604 5602 5600 5599 5597 5596 5594 5593 5592 5590 5588 5587 5585 5585 5584 5583 5584 5584 5583 5583 5581 5579 5578 5579 5578 5578 5578 5577 5576 5576 5576 5575 5575 5575 5576 5576 5576 5575 5575 5574 5574 5574 5574 5574 5574
5690 5689 5686 5681 5677 5675 5672 5669 5664 5661 5659 5656 5654 5650 5646 5644 5636 5629 5628 5625 5623 5623 5623 5622 5618 5616 5616 5613 5611 5609 5606 5603 5602 5600 5599 5597 5595 5594 5593 5593 5594 5594 5593 5592 5591 5590 5588 5587 5585 5583 5582 5580 5579 5577 5577 5576 5576 5576 5575 5575 5575 5574 5571 5571 5571 5570 5570 5570 5569 5568 5568 5567 5567 5567 5567 5567 5568 5567 5567 5567 5567 5567 5566 5566 5566 5566
5684 5684 5682 5677 5673 5671 5667 5663 5659 5655 5651 5648 5647 5643 5639 5637 5630 5622 5620 5618 5615 5612 5612 5614 5612 5610 5608 5604 5604 5603 5600 5598 5595 5593 5591 5589 5587 5585 5582 5581 5582 5582 5583 5582 5582 5581 5580 5578 5577 5575 5573 5572 5570 5569 5568 5568 5567 5567 5566 5566 5567 5565 5563 5563 5563 5562 5562 5561 5560 5560 5560 5559 5559 5558 5559 5559 5559 5559 5558 5558 5558 5558 5558 5557 5557 5557
5677 5679 5679 5673 5669 5667 5664 5658 5653 5649 5644 5639 5637 5635 5631 5628 5623 5616 5610 5610 5607 5600 5600 5605 5605 5604 5600 5594 5595 5596 5593 5591 5588 5586 5584 5582 5580 5578 5574 5572 5571 5571 5572 5572 5572 5571 5570 5569 5568 5566 5564 5562 5561 5560 5559 5558 5558 5558 5557 5557 5557 5556 5555 5554 5554 5553 5553 5552 5552 5551 5551 5550 5550 5550 5550 5550 5550 5549 5549 5549 5549 5549 5548 5548 5548 5548
5668 5670 5675 5670 5664 5662 5659 5653 5649 5645 5638 5632 5629 5626 5623 5618 5615 5609 5600 5598 5597 5590 5589 5594 5595 5594 5591 5586 5587 5589 5586 5584 5581 5579 5577 5575 5573 5571 5567 5565 5562 5562 5562 5561 5562 5561 5560 5559 5558 5556 5555 5553 5552 5550 5549 5548 5548 5547 5547 5547 5547 5547 5546 5545 5544 5544 5543 5542 5542 5541 5541 5541 5540 5540 5541 5541 5540 5539 5539 5540 5540 5539 5539 5539 5538 5538
5661 5659 5666 5667 5660 5655 5652 5647 5642 5638 5632 5627 5622 5618 5615 5609 5606 5602 5594 5588 5586 5581 5578 5581 5583 5582 5580 5578 5579 5578 5577 5576 5573 5571 5569 5566 5564 5562 5560 5558 5555 5553 5552 5550 5550 5551 5550 5549 5547 5546 5545 5544 5543 5541 5540 5538 5537 5537 5536 5536 5537 5536 5536 5535 5534 5533 5532 5531 5531 5531 5531 5530 5530 5530 5530 5530 5530 5530 5530 5531 5530 5530 5530 5529 5528 5528
5656 5649 5653 5660 5655 5648 5645 5640 5634 5629 5625 5620 5615 5611 5607 5602 5597 5593 5589 5583 5577 5571 5567 5567 5569 5570 5569 5568 5567 5565 5564 5564 5562 5560 5558 5556 5553 5551 5549 5548 5545 5543 5542 5539 5538 5538 5539 5538 5536 5535 5534 5533 5532 5531 5530 5528 5527 5526 5525 5525 5525 5525 5525 5524 5522 5522 5521 5521 5521 5521 5521 5520 5519 5519 5518 5519 5519 5519 5521 5521 5520 5520 5520 5519 5518 5518
5651 5643 5641 5647 5648 5642 5637 5631 5626 5622 5617 5612 5607 5603 5599 5595 5590 5584 5582 5580 5573 5564 5560 5556 5554 5557 5559 5557 5555 5553 5551 5550 5549 5548 5546 5544 5541 5538 5536 5534 5533 5531 5530 5528 5525 5524 5524 5524 5524 5523 5522 5521 5521 5519 5518 5517 5516 5514 5513 5513 5513 5512 5512 5511 5510 5510 5511 5511 5511 5511 5510 5509 5508 5508 5508 5508 5508 5508 5510 5510 5510 5510 5509 5508 5508 5508
5644 5638 5634 5636 5638 5636 5632 5625 5620 5616 5611 5605 5600 5597 5593 5588 5583 5576 5572 5573 5568 5559 5555 5549 5542 5545 5550 5548 5544 5542 5538 5536 5536 5534 5533 5531 5529 5526 5524 5521 5519 5518 5516 5515 5513 5511 5511 5510 5511 5511 5510 5510 5509 5508 5507 5506 5504 5503 5501 5500 5500 5499 5499 5498 5498 5498 5498 5499 5499 5499 5498 5498 5498 5497 5497 5497 5497 5497 5498 5498 5498 5498 5498 5498 5498 5498
5638 5632 5628 5627 5628 5627 5623 5618 5614 5609 5604 5598 5593 5590 5587 5581 5576 5570 5564 5563 5560 5554 5551 5543 5533 5534 5539 5538 5533 5531 5528 5524 5523 5521 5519 5517 5515 5513 5511 5508 5506 5505 5503 5502 5501 5500 5499 5498 5498 5498 5498 5498 5497 5496 5495 5494 5492 5491 5489 5488 5487 5486 5486 5485 5485 5485 5485 5486 5486 5486 5486 5486 5486 5486 5486 5486 5486 5486 5486 5486 5486 5487 5487 5488 5488 5487
5633 5626 5621 5619 5620 5621 5617 5611 5606 5602 5597 5592 5587 5584 5581 5575 5571 5565 5558 5553 5548 5546 5544 5535 5526 5526 5528 5526 5522 5520 5517 5514 5511 5509 5507 5505 5503 5501 5499 5497 5495 5493 5492 5490 5489 5488 5487 5486 5486 5486 5486 5485 5484 5483 5482 5481 5480 5478 5477 5476 5474 5474 5473 5472 5472 5472 5472 5473 5473 5473 5474 5474 5474 5474 5474 5474 5474 5474 5474 5474 5475 5475 5476 5476 5476 5476
5628 5622 5614 5609 5608 5609 5610 5606 5600 5596 5592 5585 5580 5577 5574 5569 5564 5557 5552 5546 5538 5537 5535 5527 5520 5520 5519 5516 5513 5510 5506 5504 5501 5497 5495 5493 5491 5489 5486 5485 5484 5482 5481 5479 5477 5477 5476 5474 5473 5473 5473 5473 5472 5472 5471 5469 5468 5466 5465 5463 5462 5462 5461 5460 5459 5459 5459 5459 5459 5459 5460 5460 5460 5460 5460 5460 5461 5461 5462 5462 5463 5463 5464 5464 5465 5465
5622 5618 5611 5604 5598 5594 5594 5593 5590 5586 5585 5580 5573 5567 5563 5560 5556 5550 5545 5538 5531 5529 5528 5521 5514 5514 5512 5508 5505 5502 5498 5495 5492 5488 5485 5482 5480 5478 5475 5473 5472 5471 5469 5468 5466 5465 5464 5463 5462 5461 5460 5460 5459 5459 5459 5458 5456 5454 5453 5451 5450 5449 5449 5447 5446 5446 5446 5446 5446 5446 5446 5446 5446 5446 5446 5447 5447 5448 5449 5449 5450 5451 5451 5452 5452 5453
5616 5612 5606 5600 5594 5587 5582 5581 5578 5573 5572 5571 5566 5560 5555 5551 5547 5543 5537 5531 5525 5520 5519 5516 5509 5507 5507 5502 5497 5494 5491 5487 5485 5481 5478 5475 5472 5469 5467 5464 5463 5461 5458 5456 5454 5452 5450 5449 5449 5448 5447 5446 5445 5445 5445 5444 5443 5442 5441 5439 5438 5437 5436 5436 5435 5434 5434 5433 5433 5433 5433 5432 5432 5432 5433 5434 5434 5436 5437 5437 5438 5438 5439 5439 5440 5441
5609 5606 5602 5596 5590 5583 5577 5574 5570 5564 5561 5561 5558 5553 5548 5543 5539 5534 5528 5524 5519 5512 5510 5509 5502 5498 5499 5495 5489 5486 5483 5479 5476 5473 5470 5468 5464 5461 5458 5456 5454 5452 5449 5446 5443 5440 5438 5436 5435 5434 5432 5431 5430 5431 5430 5429 5428 5427 5426 5426 5425 5424 5423 5423 5423 5423 5422 5422 5421 5421 5421 5420 5420 5420 5421 5422 5422 5424 5425 5425 5426 5427 5427 5428 5429 5430
5603 5599 5595 5591 5586 5580 5573 5568 5563 5558 5554 5552 5549 5545 5541 5536 5531 5527 5521 5516 5512 5506 5502 5500 5495 5491 5489 5486 5481 5478 5473 5469 5466 5463 5461 5458 5454 5451 5448 5446 5443 5440 5438 5435 5432 5429 5426 5424 5422 5421 5419 5417 5416 5416 5416 5415 5414 5413 5412 5411 5412 5411 5410 5410 5410 5410 5410 5410 5409 5409 5409 5409 5409 5409 5410 5410 5411 5412 5413 5414 5415 5416 5417 5418 5419 5420
5598 5593 5588 5584 5580 5576 5569 5562 5556 5552 5548 5545 5542 5538 5533 5529 5524 5519 5514 5509 5505 5500 5496 5491 5488 5485 5481 5477 5474 5470 5465 5460 5456 5453 5451 5447 5443 5439 5436 5434 5432 5429 5426 5423 5420 5417 5414 5412 5410 5408 5406 5404 5402 5401 5401 5401 5401 5399 5399 5398 5398 5398 5397 5396 5396 5396 5396 5397 5397 5396 5396 5397 5397 5398 5399 5400 5400 5401 5402 5403 5404 5405 5406 5407 5408 5410
5591 5586 5581 5576 5572 5570 5564 5556 5550 5545 5541 5538 5533 5529 5524 5520 5516 5511 5507 5501 5497 5494 5489 5484 5480 5478 5473 5469 5466 5463 5458 5453 5448 5444 5442 5438 5433 5429 5426 5423 5420 5417 5415 5411 5408 5405 5403 5400 5398 5395 5394 5392 5389 5388 5387 5387 5386 5385 5385 5386 5386 5386 5385 5383 5383 5384 5384 5384 5384 5384 5384 5385 5385 5386 5388 5388 5389 5390 5390 5391 5392 5393 5394 5396 5397 5398
5584 5579 5574 5568 5564 5562 5557 5549 5543 5538 5534 5530 5525 5520 5516 5512 5508 5504 5499 5494 5489 5485 5482 5477 5472 5469 5466 5462 5459 5455 5451 5446 5441 5437 5435 5432 5426 5420 5416 5414 5410 5407 5404 5400 5397 5394 5391 5388 5385 5382 5380 5379 5376 5375 5373 5373 5373 5372 5371 5372 5373 5372 5372 5371 5372 5372 5373 5373 5372 5372 5372 5373 5373 5375 5376 5377 5377 5378 5378 5379 5380 5381 5383 5384 5385 5386
5577 5571 5566 5560 5555 5554 5549 5541 5536 5531 5526 5523 5519 5513 5508 5504 5499 5496 5492 5487 5482 5476 5472 5468 5463 5459 5455 5452 5449 5447 5443 5438 5433 5430 5428 5425 5421 5414 5409 5405 5402 5398 5394 5390 5386 5383 5380 5377 5374 5371 5368 5366 5364 5362 5360 5359 5358 5358 5358 5358 5358 5358 5358 5359 5360 5361 5361 5361 5361 5361 5361 5361 5362 5364 5364 5365 5365 5366 5367 5368 5369 5370 5371 5372 5373 5374
5570 5564 5559 5552 5546 5545 5542 5535 5530 5525 5519 5514 5511 5505 5500 5494 5490 5487 5484 5480 5475 5470 5463 5457 5453 5450 5446 5443 5439 5436 5433 5429 5423 5420 5418 5414 5410 5407 5402 5397 5393 5389 5385 5381 5377 5374 5370 5367 5364 5361 5358 5355 5353 5350 5348 5346 5345 5344 5344 5343 5343 5344 5344 5345 5347 5348 5348 5349 5349 5349 5349 5350 5351 5352 5353 5353 5354 5355 5356 5356 5357 5358 5359 5360 5361 5363
5563 5557 5551 5545 5538 5534 5532 5526 5521 5517 5513 5507 5502 5496 5490 5485 5480 5477 5476 5471 5465 5461 5456 5449 5443 5440 5437 5435 5431 5426 5424 5420 5415 5411 5408 5402 5398 5395 5392 5388 5383 5380 5376 5373 5369 5365 5361 5357 5354 5351 5348 5345 5342 5339 5337 5334 5332 5332 5331 5330 5328 5329 5329 5330 5332 5333 5334 5336 5337 5337 5337 5337 5339 5340 5341 5341 5342 5343 5344 5345 5345 5346 5347 5348 5349 5351
5556 5550 5544 5539 5532 5526 5523 5518 5511 5506 5503 5499 5494 5488 5482 5477 5471 5466 5466 5465 5458 5451 5447 5441 5436 5432 5428 5424 5421 5416 5413 5412 5408 5403 5398 5392 5387 5383 5380 5378 5374 5371 5368 5364 5361 5358 5354 5349 5345 5341 5338 5334 5331 5328 5326 5323 5320 5320 5320 5318 5316 5315 5315 5315 5317 5318 5319 5321 5322 5323 5323 5324 5326 5327 5328 5329 5330 5332 5332 5333 5333 5334 5335 5336 5338 5340
5549 5543 5537 5531 5525 5518 5513 5509 5504 5498 5493 5489 5484 5479 5473 5468 5463 5455 5453 5455 5452 5443 5436 5430 5426 5424 5419 5414 5410 5405 5401 5400 5400 5397 5391 5385 5380 5374 5371 5369 5365 5361 5358 5355 5352 5349 5345 5341 5337 5333 5329 5325 5321 5318 5315 5312 5309 5307 5308 5307 5304 5303 5302 5302 5302 5303 5304 5306 5307 5308 5309 5310 5312 5314 5315 5316 5318 5319 5320 5320 5321 5322 5323 5325 5327 5328
5542 5536 5530 5523 5517 5511 5504 5499 5494 5490 5485 5479 5474 5469 5463 5459 5455 5446 5440 5441 5439 5433 5427 5420 5415 5413 5410 5405 5402 5397 5391 5389 5390 5389 5383 5377 5372 5367 5362 5360 5355 5351 5348 5345 5342 5340 5337 5333 5329 5325 5321 5317 5313 5308 5304 5301 5298 5297 5296 5295 5292 5291 5291 5290 5290 5290 5290 5291 5292 5293 5295 5296 5297 5300 5301 5303 5305 5306 5306 5307 5309 5310 5311 5313 5314 5316
5536 5530 5523 5515 5509 5503 5496 5490 5484 5478 5473 5468 5463 5458 5453 5449 5445 5439 5433 5431 5428 5423 5418 5412 5406 5403 5399 5396 5392 5388 5382 5379 5379 5380 5374 5368 5364 5358 5353 5350 5347 5342 5338 5335 5331 5329 5327 5323 5320 5315 5311 5307 5303 5298 5294 5291 5288 5286 5285 5283 5281 5280 5279 5279 5279 5279 5278 5279 5279 5279 5280 5281 5282 5284 5286 5288 5291 5292 5293 5294 5296 5297 5298 5300 5302 5304
5528 5522 5516 5509 5502 5495 5488 5482 5477 5471 5465 5458 5453 5449 5444 5440 5436 5428 5422 5421 5419 5415 5410 5404 5398 5393 5388 5384 5381 5378 5374 5368 5366 5367 5365 5359 5355 5351 5345 5341 5338 5334 5330 5326 5322 5319 5317 5314 5310 5305 5301 5296 5292 5287 5283 5280 5278 5276 5275 5274 5271 5270 5269 5269 5268 5268 5267 5267 5267 5267 5267 5267 5267 5269 5270 5272 5275 5277 5279 5281 5282 5284 5285 5287 5289 5291
5520 5513 5506 5500 5494 5487 5480 5474 5469 5465 5458 5450 5445 5441 5435 5431 5427 5420 5412 5409 5406 5403 5400 5395 5390 5384 5378 5373 5369 5366 5364 5360 5355 5353 5352 5348 5344 5342 5338 5333 5330 5326 5322 5318 5314 5310 5307 5305 5301 5296 5291 5286 5281 5277 5273 5270 5268 5267 5266 5265 5264 5262 5261 5260 5258 5257 5257 5256 5256 5256 5255 5255 5255 5256 5256 5258 5259 5261 5263 5266 5268 5270 5272 5273 5276 5278
5509 5503 5496 5490 5483 5478 5472 5465 5459 5455 5450 5443 5439 5435 5428 5421 5416 5409 5403 5400 5396 5390 5386 5384 5380 5375 5369 5364 5360 5355 5353 5351 5346 5342 5340 5337 5333 5330 5328 5325 5321 5319 5315 5311 5306 5302 5298 5296 5293 5288 5282 5276 5271 5268 5265 5262 5261 5260 5259 5258 5256 5255 5253 5251 5249 5248 5247 5246 5246 5245 5245 5245 5245 5245 5245 5246 5247 5248 5249 5251 5253 5255 5257 5260 5263 5265
5498 5491 5485 5480 5474 5467 5462 5456 5449 5443 5438 5433 5430 5427 5422 5415 5407 5398 5393 5391 5388 5382 5375 5371 5369 5365 5359 5354 5351 5347 5342 5339 5336 5332 5329 5326 5323 5319 5316 5314 5311 5309 5307 5304 5300 5295 5290 5287 5284 5280 5275 5269 5264 5260 5258 5256 5255 5254 5252 5251 5250 5248 5246 5244 5241 5240 5238 5237 5237 5237 5236 5236 5236 5236 5236 5236 5236 5237 5238 5239 5240 5242 5244 5246 5249 5252
5489 5481 5475 5471 5465 5458 5453 5449 5443 5435 5429 5425 5421 5416 5410 5405 5399 5391 5383 5379 5378 5373 5366 5359 5356 5354 5348 5342 5338 5336 5332 5327 5325 5322 5318 5315 5313 5310 5306 5304 5301 5299 5297 5296 5292 5287 5282 5279 5276 5272 5268 5263 5258 5255 5252 5250 5249 5248 5246 5244 5242 5240 5239 5237 5235 5233 5232 5231 5230 5230 5230 5229 5229 5229 5228 5228 5228 5228 5228 5229 5230 5231 5233 5235 5238 5241
5481 5474 5467 5462 5458 5453 5447 5442 5436 5428 5423 5420 5415 5408 5401 5395 5390 5383 5375 5369 5366 5362 5355 5347 5343 5340 5336 5331 5325 5323 5320 5316 5313 5311 5308 5304 5302 5300 5297 5294 5291 5289 5287 5286 5284 5280 5276 5273 5269 5265 5261 5257 5253 5250 5247 5244 5243 5242 5240 5238 5236 5234 5232 5230 5229 5228 5227 5226 5225 5225 5225 5224 5223 5223 5222 5221 5221 5221 5221 5221 5221 5222 5224 5226 5228 5231
5472 5466 5460 5454 5450 5447 5441 5436 5430 5422 5416 5412 5408 5401 5394 5387 5380 5372 5365 5359 5356 5351 5344 5336 5331 5327 5324 5319 5314 5311 5308 5304 5301 5300 5298 5295 5292 5290 5288 5285 5283 5280 5278 5277 5276 5273 5270 5267 5263 5259 5255 5252 5248 5245 5242 5239 5237 5235 5234 5233 5231 5229 5227 5225 5224 5223 5223 5222 5221 5221 5220 5219 5218 5217 5217 5216 5215 5215 5214 5214 5215 5215 5216 5218 5220 5222
5465 5459 5453 5447 5443 5438 5433 5427 5421 5415 5408 5402 5396 5390 5384 5377 5370 5362 5352 5346 5343 5339 5333 5327 5321 5315 5311 5308 5304 5300 5298 5294 5291 5290 5288 5286 5284 5282 5280 5278 5276 5273 5271 5269 5268 5266 5264 5261 5257 5253 5249 5246 5243 5240 5238 5236 5233 5231 5230 5229 5227 5225 5223 5222 5221 5220 5219 5218 5217 5217 5216 5215 5214 5213 5212 5211 5210 5209 5209 5209 5209 5210 5210 5211 5213 5214
5457 5450 5444 5440 5435 5430 5424 5418 5410 5405 5401 5395 5386 5379 5371 5364 5359 5352 5343 5336 5332 5327 5323 5318 5312 5306 5301 5298 5294 5290 5287 5285 5282 5279 5278 5277 5275 5274 5272 5271 5269 5267 5265 5263 5261 5259 5257 5255 5251 5247 5244 5241 5238 5236 5234 5232 5230 5228 5226 5225 5223 5221 5220 5218 5217 5216 5215 5214 5213 5213 5212 5211 5210 5209 5207 5206 5206 5205 5204 5204 5204 5204 5205 5206 5207 5208
5448 5442 5436 5431 5426 5421 5415 5408 5399 5391 5388 5384 5377 5369 5360 5353 5346 5339 5333 5327 5322 5317 5312 5308 5304 5298 5293 5289 5285 5281 5278 5276 5273 5270 5269 5268 5267 5266 5265 5263 5262 5260 5258 5256 5255 5253 5251 5248 5245 5242 5239 5237 5234 5233 5231 5228 5226 5225 5223 5221 5219 5218 5216 5215 5214 5212 5211 5210 5209 5208 5208 5207 5206 5205 5204 5202 5202 5201 5201 5200 5200 5200 5200 5200 5201 5202
5443 5436 5430 5422 5416 5410 5404 5397 5388 5377 5370 5367 5363 5356 5348 5341 5333 5326 5321 5316 5311 5306 5301 5297 5293 5289 5285 5281 5277 5273 5270 5267 5265 5263 5261 5260 5259 5258 5257 5256 5255 5254 5252 5250 5249 5247 5245 5242 5239 5237 5234 5233 5231 5229 5227 5225 5223 5222 5220 5218 5216 5215 5213 5212 5210 5209 5208 5207 5206 5205 5204 5203 5202 5201 5200 5199 5198 5197 5197 5196 5196 5196 5196 5196 5196 5197
5436 5429 5422 5414 5407 5401 5395 5389 5382 5372 5362 5356 5351 5344 5337 5331 5323 5315 5310 5305 5299 5295 5291 5286 5281 5278 5275 5272 5269 5265 5261 5259 5258 5256 5254 5254 5253 5251 5250 5249 5248 5247 5246 5245 5243 5242 5240 5237 5234 5232 5230 5229 5227 5225 5223 5221 5220 5218 5216 5215 5213 5211 5210 5209 5207 5206 5204 5203 5202 5201 5200 5199 5198 5197 5196 5195 5195 5194 5193 5193 5193 5192 5192 5192 5192 5193